Regional Weather Roundup
Issued by NWS Kansas City/Pleasant Hill, MO

Home | Current Version | Previous Version | Text Only | Print | Product List | Glossary On
Versions: 1 2 3 4 5 6 7 8 9 10 11 12 13 14 15 16 17 18 19 20 21 22 23 24 25 26 27 28 29 30 31 32 33 34 35 36 37 38 39 40 41 42 43 44 45 46 47 48 49 50
000
ASUS43 KEAX 240111
RWREAX

WEATHER ROUNDUP FOR EASTERN KANSAS AND NORTHWEST MISSOURI
NATIONAL WEATHER SERVICE KANSAS CITY/PLEASANT HILL MO
800 PM CDT WED APR 23 2014

KSZ040-057-103>105-MOZ028-029-037-043-240200-
...KANSAS CITY METROPOLITAN AREA...

CITY           SKY/WX    TMP DP  RH WIND       PRES   REMARKS
K.C. INTL      MOCLDY    69  42  37 SE18G28   29.69F
K.C. DOWNTOWN  PTCLDY    73  43  33 SE17G23   29.69F
LEES SUMMIT    PTCLDY    71  42  35 SE15G23   29.72F
OLATHE - IXD   PTCLDY    71  46  40 SE21      29.69F
OLATHE - OJC   PTCLDY    71  43  36 SE18G26   29.69F
LAWRENCE       PTCLDY    73  47  39 SE21      29.65F

$$

MOZ001>008-011>017-020>025-030>033-038>040-044>046-053-054-240200-
...NORTHERN AND CENTRAL MISSOURI...

CITY           SKY/WX    TMP DP  RH WIND       PRES   REMARKS
ST. JOSEPH     MOCLDY    68  42  38 SE17G25   29.67F
MOSBY          FAIR      70  39  32 SE9G16    29.72F
WARRENSBURG    PTCLDY   N/A N/A N/A E10G18    29.77F
WHITEMAN AFB   PTCLDY    67  33  27 SE12      29.78F
CLINTON        PTCLDY    72  43  35 SE12      29.79S
SEDALIA        PTCLDY    67  39  35 E14       29.81F
WARSAW         NOT AVBL
MARSHALL         N/A     66  43  42 E15G22    29.81F
CHILLICOTHE      N/A     65  38  36 SE15G22   29.78F
MOBERLY        CLOUDY    59  37  44 E16       29.88F
KIRKSVILLE     CLOUDY    57  36  45 SE21G28   29.85F

$$

MOZ041-047>049-056>058-063>065-088>090-097-240200-
...EASTERN AND SOUTHERN MISSOURI...

CITY           SKY/WX    TMP DP  RH WIND       PRES   REMARKS
ST. LOUIS INTL CLOUDY    62  34  35 E13       29.98S
SPIRIT OF STL  CLOUDY    60  34  37 E9        29.95S
COLUMBIA       MOCLDY    60  39  45 E13       29.88F
JEFFERSON CITY PTCLDY    64  38  38 E13       29.87F
MEXICO         MOCLDY    55  39  54 E14       29.91F
HANNIBAL       CLOUDY    59  28  31 E10       29.93F
ROLLA          PTCLDY    61  40  45 E9        29.89S
LEBANON        PTCLDY    68  34  28 SE8       29.87F
OSAGE BEACH    PTCLDY    72  34  25 SE6       29.86F
SPRINGFIELD    CLEAR     72  41  32 SE16      29.82F
BRANSON        PTCLDY    70  41  35 SE12      29.87S
NEVADA         PTCLDY    72  46  40 SE12G17   29.78R
JOPLIN         PTCLDY    74  44  34 S13       29.77F
WEST PLAINS    CLEAR     66  38  35 SE9       29.93S
MALDEN         CLEAR     64  37  36 E6        29.98R

$$

IAZ060-094-KSZ022-034>040-054-083-096-NEZ052-066-093-240200-
...KANSAS...SOUTHEAST NEBRASKA AND IOWA...

CITY           SKY/WX    TMP DP  RH WIND       PRES   REMARKS
TOPEKA         PTCLDY    78  46  32 SE16      29.62F
MANHATTAN      CLOUDY    80  47  31 S21G29    29.55S
EMPORIA        CLOUDY    75  51  43 SE23G39   29.61F
CHANUTE        PTCLDY    75  51  43 SE18      29.70F
WICHITA        CLOUDY    80  46  30 S24G39    29.58F
OMAHA          CLOUDY    56  45  66 SE17      29.63S
LINCOLN        CLOUDY    62  48  60 N10       29.58F
FALLS CITY     MOCLDY    68  46  45 SE14      29.61F
LAMONI         CLOUDY    57  39  51 SE13G24   29.77F
DES MOINES     LGT RAIN  50  40  68 SE20G32   29.81F

$$




USA.gov is the U.S. government's official web portal to all federal, state and local government web resources and services.